Weather History for Iwojima, Japan

Change the Weather History Date:

Saturday, January 19, 2013

  Actual Average Record
Temperature  
Mean Temperature 62 °F -  
Max Temperature 66 °F 69 °F 77 °F (1999)
Min Temperature 59 °F 64 °F 59 °F (2013)
Degree Days  
Heating Degree Days 2    
Growing Degree Days 12 (Base 50)    
Moisture  
Dew Point 44 °F    
Average Humidity 51    
Maximum Humidity 67    
Minimum Humidity 43    
Precipitation  
Precipitation 0.00 in - - ()
Sea Level Pressure  
Sea Level Pressure 30.16 in    
Wind  
Wind Speed 11 mph ()    
Max Wind Speed 15 mph    
Max Gust Speed 28 mph    
Visibility 6.2 miles    
Events Rain    
Averages and records for this station are not official NWS values.
T = Trace of Precipitation, MM = Missing Value Source: Averaged Metar Reports

Daily Weather History Graph

Daily Weather History Graph

Search for Another Location

Airport:

Trip Planner

Search our weather history database for the weather conditions in past years. The results will help you decide how hot, cold, wet, or windy it might be!

Date:

Astronomy

Jan. 19, 2013 Rise Set
Actual Time 7:20 AM ChST 6:10 PM ChST
Civil Twilight 6:56 AM ChST 6:34 PM ChST
Nautical Twilight 6:28 AM ChST 7:02 PM ChST
Astronomical Twilight 6:01 AM ChST 7:29 PM ChST
Moon 12:04 PM ChST (1/19) 12:30 AM ChST (1/19)
Length of Visible Light 11h 38m
Length of Day
10h 49m
Waxing Crescent, 51% of the Moon is Illuminated
Jan 19
Waxing Crescent
Jan 27
Full
Feb 3
Last Quarter
Feb 10
New
Feb 18
First Quarter

Hourly Weather History & Observations

Time (ChST) Temp. Dew Point Humidity Pressure Visibility Wind Dir Wind Speed Gust Speed Precip Events Conditions
1:00 AM 62.6 °F 41.0 °F 45% 30.09 in 6.2 mi NNE 15.0 mph 26.5 mph N/A   Partly Cloudy
4:00 AM 60.8 °F 39.2 °F 45% 30.12 in 6.2 mi North 13.8 mph - N/A   Partly Cloudy
6:00 AM 60.8 °F 42.8 °F 52% 30.12 in 6.2 mi NNE 13.8 mph - N/A   Scattered Clouds
6:48 AM 60.8 °F 46.4 °F 59% 30.15 in 6.2 mi NE 13.8 mph 26.5 mph N/A   Mostly Cloudy
7:00 AM 60.8 °F 44.6 °F 55% 30.15 in 6.2 mi NE 15.0 mph 27.6 mph N/A   Mostly Cloudy
8:00 AM 60.8 °F 44.6 °F 55% 30.18 in 6.2 mi NNE 12.7 mph - N/A   Mostly Cloudy
9:00 AM 59.0 °F 48.2 °F 67% 30.18 in 6.2 mi NNE 11.5 mph - N/A Rain Light Rain Showers
10:00 AM 60.8 °F 46.4 °F 59% 30.21 in 6.2 mi NE 12.7 mph - N/A   Mostly Cloudy
11:00 AM 62.6 °F 44.6 °F 52% 30.18 in 6.2 mi NE 13.8 mph - N/A   Mostly Cloudy
12:00 PM 64.4 °F 42.8 °F 45% 30.18 in 6.2 mi NNE 11.5 mph - N/A   Mostly Cloudy
1:00 PM 66.2 °F 42.8 °F 43% 30.15 in 6.2 mi NNE 11.5 mph - N/A   Scattered Clouds
2:00 PM 64.4 °F 42.8 °F 45% 30.15 in 6.2 mi NNE 12.7 mph - N/A   Mostly Cloudy
3:00 PM 64.4 °F 44.6 °F 49% 30.12 in 6.2 mi NNE 13.8 mph - N/A   Scattered Clouds
4:00 PM 64.4 °F 42.8 °F 45% 30.12 in 6.2 mi NNE 13.8 mph - N/A   Scattered Clouds
5:00 PM 64.4 °F 42.8 °F 45% 30.15 in 6.2 mi North 10.4 mph - N/A   Partly Cloudy
6:00 PM 62.6 °F 44.6 °F 52% 30.18 in 6.2 mi NNE 11.5 mph - N/A   Scattered Clouds
6:20 PM 62.6 °F 44.6 °F 52% 30.18 in 6.2 mi NNE 10.4 mph - N/A   Mostly Cloudy
7:00 PM 62.6 °F 44.6 °F 52% 30.18 in 6.2 mi NNE 10.4 mph - N/A   Mostly Cloudy
10:00 PM 62.6 °F 44.6 °F 52% 30.24 in 6.2 mi NNE 12.7 mph - N/A   Mostly Cloudy